Location: Unspecified
(52.0000°N, 4.4000°E)
Time: 19:05:57
(UTC+00:00)

ISS - Pass Details

Date: 14 May 2025
Orbit: 415 x 417 km, 51.6° (Epoch: 20 June)

Event Time Altitude Azimuth Distance (km) Brightness Sun altitude
Rises 22:38:30 0° 279° (W) 2,359 0.4 -17.9°
Reaches altitude 10° 22:40:36 10° 277° (W) 1,494 -0.7 -18.0°
Maximum altitude 22:43:56 69° 194° (SSW) 449 -3.9 -18.1°
Enters shadow 22:44:13 64° 156° (SSE) 463 -3.9 -18.1°
